Regional Weather Roundup
Issued by NWS Charleston, SC

Home | Current Version | Previous Version | Text Only | Print | Product List | Glossary On
Versions: 1 2 3 4 5 6 7 8 9 10 11 12 13 14 15 16 17 18 19 20 21 22 23 24 25 26 27 28 29 30 31 32 33 34 35 36 37 38 39 40 41 42 43 44 45 46 47 48 49 50
000
ASUS42 KCHS 251827
RWRCHS

REGIONAL WEATHER ROUNDUP
NATIONAL WEATHER SERVICE CHARLESTON SC
200 PM EDT SUN JUN 25 2017

NOTE: "FAIR" INDICATES FEW OR NO CLOUDS BELOW 12,000 FEET WITH NO
SIGNIFICANT WEATHER AND/OR OBSTRUCTIONS TO VISIBILITY.

NOT ALL STATIONS ARE QUALITY CONTROLLED. USE DATA WITH CAUTION...
ESPECIALLY DEWPOINT OBSERVATIONS.

SCZ027-030-031-034>040-042>050-251900-
...SOUTHEAST SOUTH CAROLINA...

CITY           SKY/WX    TMP DP  RH WIND       PRES   REMARKS
N CHARLESTON   CLOUDY    88  73  61 SW7       30.05F HX  95
6HR MIN TEMP:  78; 6HR MAX TEMP:  89;

WATERFRONT PRK   N/A     85  76  74 S9        30.05F HX  95
JOHNS ISLAND   FAIR      88  77  70 S9G16     30.05F HX 100
PINOPOLIS        N/A     84  75  74 CALM      30.00F HX  92
MONCKS CORNER  FAIR      86  72  62 N3        30.04F HX  92
SUMMERVILLE    CLOUDY    86  73  66 NW3       30.05F THUNDER HX  93
BEAUFORT MCAS  CLOUDY    86  78  77 S3        30.04F THUNDER HX  98
6HR MIN TEMP:  80; 6HR MAX TEMP:  89;

BEAUFORT ARPT  FAIR      84  75  74 S9        30.04F HX  92
HILTON HEAD IS PTSUNNY   84  79  84 SE5       30.06F THUNDER HX  96
WALTERBORO     RAIN      77  73  88 CALM      30.07S
ALLENDALE      RAIN      77  75  94 CALM      30.06S

...SOUTHERN MIDLANDS AND PEE DEE...

CITY           SKY/WX    TMP DP  RH WIND       PRES   REMARKS
GEORGETOWN     MOCLDY    88  73  62 SW5       30.06F HX  96
KINGSTREE      CLOUDY    84  72  65 S5        30.06S
ORANGEBURG     CLOUDY    85  73  67 NW7       30.06F HX  91
6HR MIN TEMP:  76; 6HR MAX TEMP:  87;

BARNWELL       MOCLDY    86  77  74 SW5       30.06F HX  97
AIKEN          FAIR      84  72  65 NW5       30.10F
MANNING        MOCLDY    84  75  74 S17       30.05F HX  92
COLUMBIA       PTSUNNY   88  69  53 N7        30.06F HX  92
6HR MIN TEMP:  73; 6HR MAX TEMP:  90;

SUMTER         PTSUNNY   86  72  63 CALM      30.04F HX  92
6HR MIN TEMP:  74; 6HR MAX TEMP:  86;

FLORENCE       PTSUNNY   85  73  67 SW7       30.07F HX  91
6HR MIN TEMP:  76; 6HR MAX TEMP:  85;

MYRTLE BEACH   PTSUNNY   86  70  58 SW7       30.06F HX  90
N MYRTLE BEACH CLOUDY    84  75  74 S7        30.05F HX  92
6HR MIN TEMP:  79; 6HR MAX TEMP:  86;


$$

GAZ063-065-086>088-099>101-113>116-118-119-134>141-150-251900-
...SOUTHEAST GEORGIA...

CITY           SKY/WX    TMP DP  RH WIND       PRES   REMARKS
SAVANNAH ARPT  PTSUNNY   90  70  51 SW9       30.04F THUNDER HX  95
6HR MIN TEMP:  80; 6HR MAX TEMP:  93;

HUNTER AAF     PTSUNNY   92  74  54 S10G16    30.01F HX 102
6HR MIN TEMP:  79; 6HR MAX TEMP:  93;

FORT STEWART   MOSUNNY   92  71  50 SW16      30.02F HX  99
6HR MIN TEMP:  77; 6HR MAX TEMP:  93;

STATESBORO     TSTM      74  74 100 CALM      30.08F
SYLVANIA       TSTM      76  76  99 CALM      30.10S
CLAXTON        TSTM      79  76  91 NW8       30.08S

...CSRA...CENTRAL AND FAR SOUTHEAST GEORGIA...

CITY           SKY/WX    TMP DP  RH WIND       PRES   REMARKS
THOMSON        MOSUNNY   85  70  60 NE8       30.13F
AUGUSTA-BUSH   MOSUNNY   90  74  59 NE3       30.05F HX  99
6HR MIN TEMP:  77; 6HR MAX TEMP:  91;

AUGUSTA-DANIEL MOSUNNY   89  70  53 NW7       30.08F HX  94
SWAINSBORO     MOCLDY    86  77  74 NW7G16    30.07F HX  97
VIDALIA        PTSUNNY   88  77  70 W7        30.07S HX 100
EASTMAN        FAIR      89  66  46 NW7G16    30.10F HX  92
HAZLEHURST       N/A     90  78  66 W6        30.05F HX 104
ALMA           PTSUNNY   89  73  59 W10       30.07F HX  97
6HR MIN TEMP:  79; 6HR MAX TEMP:  91;

WAYCROSS       CLOUDY    94  79  63 W9        30.07F HX 111
JESUP          FAIR      91  70  49 W9G20     30.05F HX  97
BAXLEY         PTSUNNY   90  79  70 W8G18     30.06F HX 105
BRUNSWICK      MOSUNNY   91  73  55 W8G16     30.06F HX 100
SAINT SIMONS   SUNNY     93  70  46 W13       30.06F HX  99
6HR MIN TEMP:  80; 6HR MAX TEMP:  94;


$$

SCZ027-028-034-036>038-045-046-048>050-GAZ119-141-251900-
...LAKE AND SUPPLEMENTAL COASTAL OBSERVATIONS...

STATION/POSITION TIME  TEMP    WIND        PRES    WAVE   SWELL
                       AIR SEA DIR/SP/G            HT/PER HT/PER/DIR
                 (UTC) (F)     (DEG/KT/KT) (MB)    (FT/S) (FT/S/D)
WINYAH BAY       1745   86     240/  5     1018.0S
LAKE MURRAY      1730   85     330/  3/  6 1017.3F
ACE BASIN NERRS  1745   87     170/  1     1018.0F
FORT PULASKI     1800   87 85  180/  9/ 15 1017.5
SAPELO ISLAND    1800   90     230/ 10     1018.0

$$

ANZ835-935-AMZ111-154-330-350-352-354-370-450-454-472-251900-
...C-MAN AND BUOY OBSERVATIONS...

STATION/POSITION TIME  TEMP    WIND        PRES    WAVE   SWELL
                       AIR SEA DIR/SP/G            HT/PER HT/PER/DIR
                 (UTC) (F)     (DEG/KT/KT) (MB)    (FT/S) (FT/S/D)
BUOY 41004       1810   80 81  230/ 12/ 14 1017.9
BUOY 41008       1750   81 83  180/ 12/ 14 1018.0F   2/ 9   2/120/ 9
FOLLY BEACH CMAN 1800   85     190/  8/ 10 1018.6F
CAPERS NEARSHORE 1808   88 85  200/  8/ 10 1017.9F
FRIPP NEARSHORE  1808   83 86  190/ 10/ 14 1017.6F


STATION/POSITION TIME  TEMP    WIND        PRES    WAVE   SWELL
                       AIR SEA DIR/SP/G            HT/PER HT/PER/DIR
                 (UTC) (F)     (DEG/KT/KT) (MB)    (FT/S) (FT/S/D)
5E ST. MARYS GA  1800      83                N/A     2/ 9
FRYING PAN BUOY  1810   80 80  230/ 12/ 14 1017.3
BUOY 41025       1750   79 80  260/  8/  8 1016.6F   3/ 6   3/210/ 6
CAPE LOOKOUT NC  1800   81     260/ 11/ 12 1016.5F
BUOY 41002       1750   81 81  210/ 14/ 16 1020.4F   4/ 6   2/100/ 8
BUOY 41010       1810   83 84  200/  8/ 10 1020.5
ST AUGUSTINE FL  1800   79 79  130/ 11/ 12 1019.5F


$$




USA.gov is the U.S. government's official web portal to all federal, state and local government web resources and services.